Regional Weather Roundup
Issued by NWS

Home | Current Version | Previous Version | Graphics & Text | Print | Product List | Glossary On
Versions: 1 2 3 4 5 6 7 8 9 10 11 12 13 14 15 16 17 18 19 20 21 22 23 24 25 26 27
000
ASUS45 KTFX 260110
RWRMT
MONTANA REGIONAL WEATHER ROUNDUP
NATIONAL WEATHER SERVICE GREAT FALLS MT
700 PM MDT THU MAY 25 2017

NOTE: "FAIR" INDICATES FEW OR NO CLOUDS BELOW 12000 FEET WITH NO
SIGNIFICANT WEATHER AND/OR OBSTRUCTIONS TO VISIBILITY.

MTZ001>007-043-260200-
WEST OF THE DIVIDE

CITY           SKY/WX    TMP DP  RH WIND       PRES   REMARKS
KALISPELL      PTSUNNY   62  36  37 CALM      29.79S
MISSOULA       PTSUNNY   61  32  33 NE7       29.79S
BUTTE          CLOUDY    52  28  39 E13       29.85S
MULLAN PASS    CLOUDY    43  34  70 NW6       29.86S
ANACONDA         N/A     54  27  35 N6        29.83S
DEER LODGE       N/A     52  30  43 N9        29.86R
EUREKA           N/A     63  32  31 W7        29.78R
HAMILTON         N/A     61  32  33 NW6       29.77F
PLAINS           N/A     66  37  34 CALM      29.81
RONAN            N/A     61  33  34 N5        29.86
$$

MTZ008-052>055-260200-
SOUTHWEST MONTANA

CITY           SKY/WX    TMP DP  RH WIND       PRES   REMARKS
BOZEMAN        CLOUDY    51  39  63 E7        29.85S
DILLON         CLOUDY    53  29  39 N14       29.81S
W YELLOWSTONE  CLOUDY    46  25  42 NE9G18    29.86R
ENNIS          CLOUDY    50  30  46 NW13      29.88S
THREE FORKS      N/A     55  32  41 CALM      29.86S
TWIN BRIDGES     N/A     56  27  33 N12       29.84
$$

MTZ009-010-012-014-046-048-049-054-260200-
EAST SLOPES AND CENTRAL MONTANA

CITY           SKY/WX    TMP DP  RH WIND       PRES   REMARKS
CUT BANK       PTSUNNY   51  42  71 NW12      29.82S
GREAT FALLS    PTSUNNY   53  36  52 NW7       29.83R
MALMSTROM AFB  PTSUNNY   57  32  39 NW12      29.82R
HELENA         CLOUDY    57  32  38 NE10      29.84S
CONRAD           N/A     48  48 100 SW12      29.88R
$$

MTZ011-013-016-021-045-047-050-051-260200-
NORTH CENTRAL MONTANA

CITY           SKY/WX    TMP DP  RH WIND       PRES   REMARKS
HAVRE          MOSUNNY   61  34  36 N16G23    29.72R
LEWISTOWN      CLOUDY    51  33  50 NW12G21   29.79R
N BAR RANCH      N/A     52  32  46 NW21G26   29.81R
CHINOOK          N/A     59  34  38 NW18      29.71R
FORT BENTON      N/A     59  36  41 CALM        N/A
$$

MTZ017>020-022>027-061-062-260200-
NORTHEAST MONTANA

CITY           SKY/WX    TMP DP  RH WIND       PRES   REMARKS
GLASGOW        CLOUDY    54  39  57 NW25G32   29.62R
JORDAN           N/A     54  38  54 NW24G32   29.68R
SIDNEY         CLOUDY    61  44  53 W22G31    29.54R
WOLF POINT     CLOUDY    58  44  60 NW22G28   29.58R
MALTA          CLOUDY    54  39  58 NW23G29   29.68R
PLENTYWOOD       N/A     57  41  54 W21G26    29.49R
POPLAR           N/A     57  43  58 W25G32    29.56R
$$

MTZ028>42-056>058-260200-
SOUTHCENTRAL AND SOUTHEAST MONTANA

CITY           SKY/WX    TMP DP  RH WIND       PRES   REMARKS
BAKER          CLOUDY    51  42  71 W21G29    29.66R
BILLINGS       PTSUNNY   58  29  33 N18G26    29.78R
LIVINGSTON     CLOUDY    49  37  63 S12       29.84S
MILES CITY     CLOUDY    56  37  49 NW23G31   29.69R
BIG TIMBER     MOSUNNY   52  34  50 W20       29.84S
FORSYTH          N/A     55  37  50 NW17G28   29.71R
LAUREL           N/A     56  33  41 W3        29.80R
ROUNDUP          N/A     57  31  37 NW15      29.72R
$$

REGIONAL REPORTS...DAKOTAS

CITY           SKY/WX    TMP DP  RH WIND       PRES   REMARKS
WILLISTON      CLOUDY    65  41  41 W13       29.50R
MINOT          CLOUDY    63  43  48 SW18G26   29.47R
DICKINSON      MOSUNNY   54  40  59 W21       29.57R
BEACH          PTSUNNY   52  50  93 W15G25    29.64R
CROSBY         CLOUDY    59  41  51 W17G24    29.47R
TIOGA          CLOUDY    59  41  51 W15       29.50R
WATFORD CITY   PTSUNNY   59  43  55 W15G21    29.52R
BISMARCK       MOSUNNY   67  43  41 W18       29.53R
GRAND FORKS    CLOUDY    68  51  54 SE17      29.49R
FARGO          MOCLDY    68  51  54 S18G24    29.51R
BUFFALO SD       N/A     56  42  59 W25       29.62R
RAPID CITY     CLOUDY    60  39  45 N26G38    29.66R
$$

REGIONAL REPORTS...WYOMING/IDAHO/WASHINGTON

CITY           SKY/WX    TMP DP  RH WIND       PRES   REMARKS
GILLETTE       CLOUDY    53  36  52 N26G32    29.77R
SHERIDAN       PTSUNNY   54  38  54 N15       29.78R
BUFFALO WY     CLOUDY    53  34  48 N23G29    29.80R
CODY           MOSUNNY   52  29  41 N16       29.82R
YELLOWSTONE LA   N/A     40  25  55 CALM      29.90
IDAHO FALLS    MOSUNNY   58  30  34 W5        29.77R
SALMON         CLOUDY    57  36  44 N10       29.74R
BOISE            N/A     64  31  28 W9        29.71F
SPOKANE        PTSUNNY   63  37  38 W10       29.84R
$$

REGIONAL REPORTS...ALBERTA

CITY           SKY/WX    TMP DP  RH WIND       PRES   REMARKS
EDMONTON       PTSUNNY   61  36  39 N14G21    29.73R
CALGARY        MOSUNNY   52  36  54 NW17      29.83R
LETHBRIDGE     PTSUNNY   55  39  54 N21       29.81R
MEDICINE HAT   PTSUNNY   59  37  44 NW22G33   29.71R
WATERTON GATE    N/A     46  39  76 NE8         N/A
CARDSTON         N/A     48  37  66 NW8G21      N/A
MILK RIVER       N/A     57  39  51 NW23G29     N/A
ONEFOUR          N/A     57  36  44 NW24G32     N/A
$$

REGIONAL REPORTS...SASKATCHEWAN

CITY           SKY/WX    TMP DP  RH WIND       PRES   REMARKS
SWIFT CURRENT  CLOUDY    46  43  87 NW30G43   29.56R
REGINA         PTSUNNY   55  43  62 NW14G20   29.42R
SASKATOON      CLOUDY    50  46  87 NW24G30   29.44R
CYPRESS HILLS    N/A     43  37  81 NW10G25     N/A
VAL MARIE        N/A     50  39  66 NW26G33     N/A
ROCKGLEN         N/A     50  41  71 NW21G35     N/A
$$




USA.gov is the U.S. government's official web portal to all federal, state and local government web resources and services.